Lid_Strength_Index
1 1 0 -0 -0 -1 -1 -0 0 0 -0 -0 -1 -1 -0 -0 0 1 3 1 4 7 7 8 8 10 11 11 12 12 12 13 13 13 14 14 15 14 15 16 16 15 16 16 15 17 19 17 16 14 15 18 17 17
1 1 0 -0 -0 -1 -1 -0 0 0 -0 -0 -1 -1 -0 -1 -0 0 4 1 2 6 9 6 6 7 7 7 10 12 12 13 12 13 13 13 16 16 16 17 15 16 15 15 14 15 17 17 17 16 16 17 17 16
1 1 0 0 -0 -1 -0 -0 0 0 0 -0 -0 -1 -1 -0 -0 0 3 3 5 8 8 9 10 7 6 7 7 10 11 10 11 11 12 14 16 15 17 17 17 16 15 16 16 17 17 16 15 15 15 16 16 15
2 1 1 0 0 -0 -0 0 0 0 0 0 -0 -0 -0 -0 0 -1 3 3 5 8 10 10 9 8 7 7 7 7 9 10 11 11 12 15 16 14 15 16 16 15 15 17 18 17 16 15 14 14 13 14 16 16
2 1 1 1 0 0 0 0 0 0 0 0 -0 -0 -0 -1 -0 0 2 2 2 7 13 14 13 10 8 8 8 8 9 11 11 12 12 14 14 15 17 16 18 16 15 16 16 15 14 14 13 12 13 14 16 16
2 1 1 1 0 0 1 1 0 0 0 -0 -0 -0 -0 -0 -0 2 6 3 2 3 11 15 10 12 12 9 9 10 10 11 11 12 14 14 14 14 16 17 15 15 14 11 13 12 13 14 13 13 13 15 15 15
2 2 1 1 1 1 1 0 0 0 0 -0 -0 -0 -0 -0 1 5 6 4 1 3 9 14 14 10 10 10 11 12 11 11 11 12 13 14 15 13 15 17 14 15 15 15 14 13 14 16 15 14 14 14 15 16
2 2 2 1 1 1 1 1 0 0 0 0 -0 -0 -0 -0 1 4 2 2 1 7 8 12 16 14 10 12 16 13 14 13 13 14 15 16 15 14 16 15 16 17 15 15 15 15 15 16 16 17 17 17 17 17
2 2 2 1 1 1 1 1 0 0 0 0 -0 -0 2 3 5 5 0 1 2 5 10 15 16 16 10 12 14 16 13 19 14 15 15 15 19 20 19 18 19 21 20 19 17 17 17 17 17 17 18 18 18 18
2 2 2 1 1 1 1 1 1 1 1 1 2 5 8 5 0 0 3 6 7 7 7 13 19 15 10 13 18 18 17 20 23 19 15 20 24 20 22 23 23 23 22 22 20 19 20 19 18 18 19 18 18 18
2 2 1 1 1 1 1 1 1 1 1 4 6 6 3 -0 3 5 8 10 9 10 8 16 17 14 11 19 20 13 17 22 22 20 20 27 25 20 22 23 23 23 23 23 22 20 20 21 20 19 20 22 21 22
2 1 1 1 1 1 1 1 1 3 7 5 3 4 5 6 7 10 11 9 10 12 13 17 17 14 14 13 17 18 20 17 23 23 22 26 22 26 27 26 26 26 26 26 25 24 24 24 24 23 25 25 25 25
2 1 1 1 2 1 1 1 1 1 1 4 7 7 8 9 13 13 18 15 14 13 13 15 15 13 14 12 17 13 21 17 18 24 23 26 25 28 30 29 29 29 28 28 27 27 27 28 28 28 28 28 28 28
1 1 1 2 2 2 1 1 1 1 3 8 10 12 14 13 12 14 19 19 12 13 16 12 14 14 16 16 14 18 17 18 25 24 24 29 30 33 31 32 34 32 31 30 30 29 29 29 30 30 30 30 30 30
1 2 3 3 3 2 2 1 1 2 5 10 13 13 18 20 16 16 16 18 12 10 10 12 14 13 16 14 14 17 17 20 22 24 31 30 30 31 32 33 35 33 32 32 32 31 30 30 30 31 33 33 31 29
1 3 5 3 3 2 1 0 4 9 14 18 22 15 18 23 19 18 16 14 17 10 10 11 13 14 15 15 16 18 19 23 28 34 31 30 32 33 35 35 34 33 33 31 32 31 29 30 31 34 33 31 31 30
4 10 4 3 3 4 4 8 11 14 16 21 27 22 23 26 24 23 22 21 19 15 13 12 15 16 14 19 25 28 34 33 31 31 29 30 32 32 32 34 34 33 32 32 33 31 31 31 31 29 30 33 33 33
11 8 4 3 5 7 12 12 14 17 22 21 24 24 25 25 27 26 25 23 22 20 19 22 21 27 29 30 32 32 30 29 29 29 30 30 32 31 30 31 32 32 32 32 32 32 31 30 29 31 34 34 32 32
7 6 5 4 7 12 15 16 15 21 21 22 20 19 22 24 24 25 26 24 24 26 26 29 34 35 36 33 34 31 31 29 29 29 30 30 29 30 29 28 28 29 29 30 28 29 29 30 31 30 30 28 28 29
5 6 6 7 8 14 18 19 16 20 22 21 22 22 23 25 25 26 28 27 27 31 35 36 37 37 34 32 31 31 30 29 29 29 30 28 27 28 29 28 28 28 27 28 27 27 30 30 28 28 29 30 30 30
11 12 11 13 15 17 20 19 21 19 22 24 22 21 24 24 28 28 30 29 32 34 36 34 34 32 31 31 31 31 31 29 30 30 30 29 28 27 27 27 27 28 28 29 30 29 29 31 30 30 31 32 32 31
16 11 20 18 17 19 21 20 19 19 21 23 23 24 27 28 29 30 28 33 34 33 32 32 32 32 32 32 32 33 31 29 28 27 27 27 29 29 30 29 29 30 30 33 33 33 32 32 32 32 31 32 32 32
16 16 22 24 24 23 25 19 22 21 23 24 25 27 28 29 28 26 33 32 33 30 30 31 31 30 30 30 30 29 29 29 29 29 28 28 28 28 29 29 29 30 30 29 30 31 32 30 31 31 32 32 33 31
19 27 30 32 31 33 25 27 24 24 24 26 28 30 30 29 27 31 35 34 32 30 31 30 29 30 30 30 31 31 30 29 29 29 28 29 30 30 29 30 29 29 29 29 30 30 30 32 30 31 33 36 36 35
31 35 34 40 35 34 31 31 32 29 30 28 30 31 31 28 33 35 36 35 32 33 32 30 30 31 32 31 31 30 29 29 30 31 30 31 32 31 30 30 30 30 30 31 31 31 30 31 30 32 32 34 31 32
39 35 38 38 37 37 35 35 35 36 33 32 31 29 30 32 36 38 35 33 33 32 32 32 32 32 33 32 34 34 33 31 33 32 34 34 34 34 34 35 34 32 30 34 34 34 34 33 36 34 34 33 32 36
39 37 32 30 33 34 35 34 34 35 38 38 37 33 33 38 39 35 31 30 31 31 31 32 34 37 38 37 36 36 37 36 35 35 35 35 36 39 39 40 39 36 37 39 40 40 39 38 36 34 33 35 36 36
31 32 36 33 35 36 39 37 38 39 38 36 34 38 38 38 37 32 30 28 29 31 33 37 39 40 40 38 40 38 38 38 34 32 32 34 39 40 41 40 39 26 34 35 34 32 36 36 34 32 34 33 31 32
30 30 31 35 37 36 36 38 37 34 33 36 36 37 37 34 33 32 30 30 33 34 37 39 37 41 39 41 41 45 45 42 39 42 42 42 41 37 40 38 38 36 37 40 30 25 26 26 26 28 32 33 32 32
32 31 34 35 38 37 34 34 35 32 32 34 32 32 34 34 32 31 34 36 37 39 41 42 44 43 44 44 44 41 46 47 42 39 42 42 39 39 40 38 37 36 37 41 33 33 29 32 32 38 37 36 35 34
32 32 34 34 35 34 33 32 34 36 37 38 40 39 40 37 36 37 37 42 45 46 43 43 45 50 45 44 46 45 40 43 45 43 43 41 39 40 38 36 35 37 39 37 36 37 34 34 35 37 36 37 36 35
36 40 36 36 35 35 37 40 42 42 44 42 42 45 42 42 42 40 38 43 43 41 40 45 45 40 42 43 44 43 36 37 38 36 38 36 37 35 34 33 34 36 35 32 33 35 35 36 36 35 35 36 36 36
44 44 45 43 40 40 41 42 40 42 42 44 43 46 46 41 37 35 35 40 37 38 40 40 41 41 41 40 39 39 36 38 38 29 26 26 26 26 26 28 31 32 32 32 32 33 35 35 35 35 35 36 36 36